• In Hungary
  • List of Countries
  • For 7 days
  • Water Temperature
  • Satellite Maps
  • Weather Map
  • News
  • Weather Widgets
  • user-avatar
    Login

    Hourly Weather Probabyn

    Today, 22 October, Monday

    Time Temperature Precipitation Wind Pressure Humidity
    00:00 +6°C° 0 mm 2 mps 743 mmHg 95%
    01:00 +6°C° 0 mm 2 mps 742 mmHg 97%
    02:00 +6°C° 0 mm 1 mps 743 mmHg 86%
    03:00 +6°C° 0 mm 1 mps 742 mmHg 91%
    04:00 +6°C° 0 mm 1 mps 742 mmHg 94%
    05:00 +5°C° 0 mm 1 mps 742 mmHg 95%
    06:00 +5°C° 0 mm 1 mps 742 mmHg 96%
    07:00 +5°C° 0 mm 1 mps 743 mmHg 97%
    08:00 +4°C° 0 mm 2 mps 743 mmHg 96%
    09:00 +7°C° 0 mm 1 mps 743 mmHg 92%
    10:00 +8°C° 0 mm 1 mps 743 mmHg 85%
    11:00 +9°C° 0 mm 1 mps 742 mmHg 81%
    12:00 +10°C° 0 mm 1 mps 742 mmHg 79%
    13:00 +11°C° 0 mm 1 mps 742 mmHg 77%
    14:00 +12°C° 0 mm 1 mps 742 mmHg 74%
    15:00 +12°C° 0 mm 1 mps 742 mmHg 73%
    16:00 +12°C° 0 mm 1 mps 741 mmHg 73%
    17:00 +11°C° 0 mm 1 mps 741 mmHg 81%
    18:00 +10°C° 0 mm 1 mps 740 mmHg 83%
    19:00 +9°C° 0 mm 1 mps 740 mmHg 85%
    20:00 +9°C° 0 mm 1 mps 740 mmHg 82%
    21:00 +7°C° 0 mm 2 mps 740 mmHg 87%
    22:00 +6°C° 0 mm 2 mps 740 mmHg 94%
    23:00 +6°C° 0 mm 2 mps 740 mmHg 93%

    Tomorrow, 23 October, Tuesday

    Time Temperature Precipitation Wind Pressure Humidity
    00:00 +5°C° 0 mm 2 mps 740 mmHg 94%
    01:00 +5°C° 0 mm 2 mps 739 mmHg 95%
    02:00 +5°C° 0 mm 2 mps 739 mmHg 96%
    03:00 +4°C° 0 mm 2 mps 739 mmHg 98%
    04:00 +4°C° 0 mm 2 mps 738 mmHg 100%
    05:00 +5°C° 0 mm 2 mps 738 mmHg 100%
    06:00 +5°C° 0 mm 2 mps 737 mmHg 100%
    07:00 +5°C° 0 mm 2 mps 738 mmHg 100%
    08:00 +6°C° 0 mm 2 mps 738 mmHg 98%
    09:00 +7°C° 0 mm 3 mps 737 mmHg 96%
    10:00 +7°C° 0 mm 4 mps 737 mmHg 95%
    11:00 +8°C° 0 mm 5 mps 737 mmHg 94%
    12:00 +8°C° 0 mm 5 mps 737 mmHg 95%
    13:00 +8°C° 0 mm 5 mps 736 mmHg 90%
    14:00 +8°C° 0 mm 5 mps 735 mmHg 87%
    15:00 +8°C° 0 mm 4 mps 734 mmHg 88%
    16:00 +8°C° 0.1 mm 2 mps 733 mmHg 96%
    17:00 +8°C° 0.1 mm 3 mps 733 mmHg 97%
    18:00 +8°C° 0.1 mm 2 mps 732 mmHg 98%
    19:00 +7°C° 0 mm 4 mps 731 mmHg 95%
    20:00 +7°C° 0 mm 2 mps 730 mmHg 98%
    21:00 +7°C° 0.3 mm 2 mps 730 mmHg 100%
    22:00 +7°C° 0.2 mm 3 mps 728 mmHg 100%
    23:00 +7°C° 0 mm 3 mps 727 mmHg 98%

    Day after tomorrow, 24 October, Wednesday

    Time Temperature Precipitation Wind Pressure Humidity
    00:00 +6°C° 0 mm 4 mps 726 mmHg 94%
    01:00 +7°C° 0 mm 5 mps 725 mmHg 88%
    02:00 +5°C° 0.1 mm 7 mps 724 mmHg 95%
    03:00 +5°C° 0.4 mm 7 mps 723 mmHg 96%
    04:00 +5°C° 0.6 mm 7 mps 722 mmHg 98%
    05:00 +5°C° 0.7 mm 7 mps 721 mmHg 98%
    06:00 +6°C° 0.3 mm 7 mps 720 mmHg 88%
    07:00 +6°C° 0 mm 7 mps 719 mmHg 87%
    08:00 +5°C° 0.3 mm 7 mps 719 mmHg 98%
    09:00 +5°C° 1.7 mm 10 mps 718 mmHg 98%
    10:00 +6°C° 0.8 mm 11 mps 718 mmHg 91%
    11:00 +5°C° 0 mm 12 mps 719 mmHg 87%
    12:00 +4°C° 0 mm 12 mps 720 mmHg 86%
    13:00 +4°C° 0 mm 12 mps 720 mmHg 86%
    14:00 +3°C° 0 mm 12 mps 720 mmHg 92%
    15:00 +2°C° 1.2 mm 11 mps 721 mmHg 99%
    16:00 +1°C° 0.9 mm 11 mps 721 mmHg 99%
    17:00 +1°C° 0.1 mm 10 mps 722 mmHg 98%
    18:00 +1°C° 0 mm 10 mps 722 mmHg 99%
    19:00 +1°C° 0 mm 11 mps 723 mmHg 96%
    20:00 0°C° 0 mm 12 mps 723 mmHg 95%
    21:00 -1°C° 0.3 mm 11 mps 723 mmHg 97%
    22:00 -1°C° 0 mm 11 mps 723 mmHg 98%
    23:00 -1°C° 0.2 mm 11 mps 724 mmHg 98%

    25 October, Thursday

    Time Temperature Precipitation Wind Pressure Humidity
    00:00 -1°C° 0.1 mm 12 mps 724 mmHg 99%
    01:00 -2°C° 0.1 mm 12 mps 724 mmHg 99%
    02:00 -2°C° 0.1 mm 11 mps 725 mmHg 99%
    03:00 -2°C° 0.1 mm 11 mps 725 mmHg 99%
    04:00 -2°C° 0 mm 11 mps 726 mmHg 99%
    05:00 -1°C° 0 mm 11 mps 726 mmHg 98%
    06:00 -1°C° 0 mm 11 mps 727 mmHg 97%
    07:00 0°C° 0 mm 10 mps 727 mmHg 97%
    08:00 0°C° 0 mm 9 mps 728 mmHg 96%
    09:00 0°C° 0 mm 9 mps 728 mmHg 96%
    10:00 0°C° 0 mm 8 mps 729 mmHg 96%
    11:00 +3°C° 0 mm 7 mps 728 mmHg 93%
    12:00 +4°C° 0 mm 7 mps 729 mmHg 87%
    13:00 +4°C° 0 mm 6 mps 728 mmHg 80%
    14:00 +5°C° 0 mm 5 mps 727 mmHg 76%
    15:00 +4°C° 0 mm 6 mps 726 mmHg 92%
    16:00 +3°C° 0.8 mm 6 mps 726 mmHg 98%
    17:00 +3°C° 1.8 mm 7 mps 725 mmHg 100%
    18:00 +3°C° 0.1 mm 9 mps 725 mmHg 95%
    19:00 +5°C° 0 mm 9 mps 725 mmHg 89%
    20:00 +5°C° 0 mm 10 mps 726 mmHg 92%
    21:00 +5°C° 0 mm 9 mps 726 mmHg 98%
    22:00 +5°C° 0 mm 9 mps 726 mmHg 98%
    23:00 +5°C° 0 mm 9 mps 727 mmHg 95%

    26 October, Friday

    Time Temperature Precipitation Wind Pressure Humidity
    00:00 +4°C° 0 mm 8 mps 728 mmHg 96%
    01:00 +4°C° 0 mm 7 mps 728 mmHg 97%
    02:00 +4°C° 0 mm 7 mps 729 mmHg 97%

    27 October, Saturday

    Time Temperature Precipitation Wind Pressure Humidity

    28 October, Sunday

    Time Temperature Precipitation Wind Pressure Humidity
    Show more